[[{"header":{"parameterUnit":"m.s-1","parameterCategory":1,"la1":30.2991,"la2":30.254,"lo1":-89.0895,"lo2":-89.0444,"dy":0.0017,"dx":0.0017,"nx":28,"ny":28,"refTime":"2025-05-14T21:00:00:Z","depth":0,"parameterNumber":2,"parameterNumberName":"U-component_of_WINDS"},"data":[0,0,0,0,0,0,0,0,0,0,0,0,0,0,0,0,0,0,0,0,0,0,0,0,0,0,0,0,0,0,0,0,0,0,0,0,0,0,0,0,0,0,0,0,0,0,0,0,0,0,0,0,0,0,0,0,0,0,2.1647,2.1647,0,2.1691,2.1692,2.1692,2.1663,2.1661,2.166,2.1659,2.1702,2.1705,2.1707,0,0,0,0,0,0,0,0,0,0,0,0,0,2.1534,2.1536,2.1647,2.1647,2.1648,2.1691,2.1692,2.1692,2.1663,2.1661,2.166,2.1658,2.1702,2.1704,2.1707,0,0,0,0,0,0,0,0,0,0,0,0,0,2.1581,2.1537,2.1647,2.1639,2.1638,2.1691,2.1692,2.1692,2.1663,2.1661,2.1659,2.1657,2.1701,2.1704,2.1708,2.177,0,0,2.1719,2.172,0,0,0,0,0,0,0,0,2.1579,2.1585,2.1639,2.1639,2.1639,2.1669,2.1668,2.1718,2.1664,2.1654,2.1659,2.1656,2.1693,2.1697,2.171,2.1772,2.1774,2.1719,2.1721,2.1723,2.1724,0,0,0,0,0,0,0,2.1575,2.1583,2.1664,2.164,2.164,2.1632,2.1636,2.1677,2.1684,2.1654,2.1652,2.1658,2.1692,2.1706,2.171,2.1775,2.1719,2.1722,2.1724,2.1726,2.1889,2.1891,0,0,0,0,0,0,2.1573,2.1581,2.1663,2.1666,2.1603,2.1635,2.164,2.1662,2.1683,2.1685,2.166,2.1657,2.1701,2.1706,2.1712,2.1785,2.1723,2.1726,2.1728,2.1886,2.1889,2.1891,0,0,0,0,0,0,2.1571,2.1581,2.1661,2.1623,2.1632,2.1639,2.1664,2.1664,2.1677,2.1688,2.1688,2.1673,2.17,2.1707,2.1755,2.1786,2.1728,2.1731,2.1884,2.1887,2.189,2.1933,0,0,0,0,0,0,2.1568,2.158,2.1605,2.1623,2.1634,2.1705,2.1665,2.1666,2.1684,2.168,2.17,2.1701,2.1699,2.175,2.1759,2.179,2.1734,2.1881,2.1885,2.1889,2.1928,2.1937,2.1944,0,0,0,0,0,2.1564,2.1615,2.1606,2.1616,2.1665,2.1707,2.1713,2.1709,2.1686,2.171,2.1717,2.1701,2.1782,2.1756,2.1765,2.1798,2.1879,2.1884,2.1889,2.1925,2.1935,2.1944,0,0,0,0,0,0,2.1599,2.1617,2.1608,2.1667,2.1685,2.1702,2.1732,2.1721,2.1746,2.1741,2.1735,2.174,2.179,2.1799,2.177,2.1858,2.1827,2.1834,2.1851,2.186,2.1868,2.1864,2.1737,0,0,0,0,0,2.1614,2.1647,2.166,2.1711,2.1721,2.1725,2.1743,2.1738,2.1757,2.1765,2.1775,2.1794,2.1823,2.1842,2.187,2.193,2.1933,2.1957,2.1964,2.1971,2.1977,2.2007,2.2017,2.1907,2.1907,2.1907,0,0,2.1644,2.1658,2.1679,2.1718,2.1732,2.1765,2.1732,2.1769,2.1793,2.177,2.1817,2.1825,2.1845,2.1899,2.1923,2.1908,2.2008,2.1977,2.1982,2.1984,2.2013,2.2023,2.2033,2.1911,2.191,2.1909,0,0,2.1716,2.1731,2.1774,2.1789,2.181,2.1813,2.1823,2.1841,2.1846,2.1892,2.1876,2.1904,2.1955,2.1969,2.1984,2.206,2.2046,2.2069,2.211,2.2139,2.2148,2.2156,2.2181,2.2191,2.2075,2.2075,2.2075,0,2.1751,2.1801,2.1797,2.1835,2.1852,2.1834,2.1876,2.189,2.192,2.1932,2.1914,2.1977,2.1989,2.2045,2.2064,2.2077,2.2087,2.2067,2.2147,2.2155,2.2162,2.2186,2.2196,2.2078,2.2078,2.2077,2.2077,0,2.1842,2.1877,2.1909,2.1938,2.1959,2.1999,2.1999,2.2021,2.2014,2.2018,2.2064,2.2079,2.2108,2.2121,2.2116,2.2177,2.2166,2.2148,2.2116,2.2175,2.2198,2.2207,2.2082,2.2081,2.208,2.2079,0,0,2.1938,2.1964,2.1975,2.1987,2.201,2.2036,2.2075,2.2104,2.2121,2.2142,2.2173,2.2216,2.22,2.2215,2.2211,2.2237,2.2295,2.2216,2.2216,2.2229,2.2361,2.2373,2.2384,2.2286,2.2288,2.2289,2.2359,0,2.201,2.2077,2.2074,2.2137,2.2168,2.2151,2.2184,2.2201,2.2206,2.2232,2.2236,2.2266,2.2243,2.2252,2.2277,2.2283,2.2321,2.2278,2.2313,2.2315,2.2307,2.2396,2.241,2.2475,2.2368,2.2369,2.237,0,2.2103,2.2127,2.2193,2.2209,2.2222,2.2252,2.2278,2.2304,2.2322,2.2323,2.2341,2.2331,2.2369,2.2337,2.2387,2.2358,2.2372,2.2377,2.2379,2.2381,2.2345,2.2399,2.2496,2.2505,2.2385,2.2384,2.2382,0,2.2164,2.2213,2.2258,2.2269,2.229,2.2311,2.2321,2.2337,2.2354,2.2377,2.2387,2.2414,2.2428,2.2448,2.2446,2.2423,2.2497,2.2465,2.2497,2.2497,2.2513,2.2512,2.2611,2.2525,2.2524,2.2524,2.2524,0,2.2244,2.2284,2.2285,2.2313,2.2358,2.2354,2.2397,2.2404,2.2419,2.2447,2.2434,2.246,2.2456,2.2482,2.2481,2.2522,2.2529,2.253,2.2528,2.253,2.253,2.2538,2.2533,2.2527,2.2526,2.2526,2.2525,0,2.2319,2.2321,2.2369,2.2385,2.239,2.2422,2.2435,2.246,2.2463,2.2499,2.2507,2.2511,2.2541,2.2541,2.2576,2.2574,2.2624,2.2619,2.2618,2.2617,2.2649,2.2645,2.2756,2.277,2.2676,2.2677,2.2678,0,2.2369,2.2399,2.2419,2.2436,2.2447,2.2477,2.2494,2.2491,2.2509,2.2532,2.2554,2.2583,2.2606,2.2654,2.266,2.2685,2.2679,2.2717,2.2683,2.2683,2.2678,2.2675,2.2678,2.2723,2.2724,2.2725,2.2725,0,2.2457,2.2456,2.2482,2.2509,2.253,2.2551,2.257,2.2585,2.2584,2.2605,2.2635,2.2653,2.2688,2.2716,2.274,2.2749,2.2736,2.2736,2.2745,2.2746,2.2743,2.2743,2.2635,2.2733,2.2732,2.2732,2.2731,2.2731,2.252,2.2546,2.2563,2.2592,2.2606,2.2624,2.2648,2.2654,2.268,2.2708,2.2704,2.2738,2.2754,2.2786,2.2796,2.2822,2.2809,2.2822,2.2825,2.2827,2.283,2.2741,2.2826,2.2826,2.2826,2.2826,2.2826,0,2.2605,2.2616,2.2643,2.2669,2.2692,2.2679,2.2699,2.2719,2.2748,2.2765,2.2787,2.2821,2.2848,2.2856,2.2882,2.2901,2.2896,2.2907,2.2905,2.2907,2.2841,2.283,2.2911,2.2911,2.2911,2.2911,2.2911,2.2911,2.2653,2.2695,2.2697,2.2746,2.2756,2.2789,2.2801,2.2817,2.2829,2.2869,2.2891,2.2896,2.2909,2.2935,2.2959,2.296,2.2969,2.2983,2.2982,2.2921,2.2912,2.2904,2.2893,2.2986,2.2986,2.3046,2.3046,2.3047]},{"header":{"parameterUnit":"m.s-1","parameterCategory":1,"la1":30.2991,"la2":30.254,"lo1":-89.0895,"lo2":-89.0444,"dy":0.0017,"dx":0.0017,"nx":28,"ny":28,"refTime":"2025-05-14T21:00:00:Z","depth":0,"parameterNumber":3,"parameterNumberName":"V-component_of_WINDS"},"data":[0,0,0,0,0,0,0,0,0,0,0,0,0,0,0,0,0,0,0,0,0,0,0,0,0,0,0,0,0,0,0,0,0,0,0,0,0,0,0,0,0,0,0,0,0,0,0,0,0,0,0,0,0,0,0,0,0,0,5.9859,5.986,0,5.9945,5.9946,5.9947,5.9901,5.9898,5.9896,5.9894,5.9976,5.9981,5.9985,0,0,0,0,0,0,0,0,0,0,0,0,0,5.9649,5.9653,5.9859,5.986,5.9862,5.9945,5.9946,5.9948,5.9901,5.9898,5.9895,5.9893,5.9975,5.998,5.9985,0,0,0,0,0,0,0,0,0,0,0,0,0,5.9738,5.9654,5.9859,5.9849,5.9848,5.9945,5.9946,5.9948,5.9902,5.9898,5.9895,5.9891,5.9973,5.998,5.9986,6.0096,0,0,6.0006,6.0009,0,0,0,0,0,0,0,0,5.9733,5.9746,5.9849,5.9849,5.985,5.9909,5.9902,5.9997,5.9903,5.9881,5.9894,5.989,5.9956,5.9964,5.9988,6.01,6.0104,6.0007,6.0011,6.0013,6.0015,0,0,0,0,0,0,0,5.9727,5.9742,5.9893,5.9851,5.9851,5.9837,5.9846,5.992,5.9937,5.9883,5.988,5.9891,5.9956,5.9982,5.9989,6.0105,6.0007,6.0012,6.0016,6.0019,6.0311,6.0314,0,0,0,0,0,0,5.9722,5.9737,5.989,5.9896,5.9782,5.9844,5.9854,5.9893,5.9936,5.994,5.9894,5.9888,5.9972,5.9982,5.9992,6.0124,6.0013,6.002,6.0023,6.0307,6.0312,6.0316,0,0,0,0,0,0,5.9718,5.9736,5.9887,5.9816,5.9834,5.9852,5.9896,5.9897,5.9923,5.9945,5.9947,5.9917,5.997,5.9983,6.0071,6.0126,6.0023,6.0028,6.0302,6.0308,6.0314,6.0388,0,0,0,0,0,0,5.9712,5.9735,5.9779,5.9817,5.9838,5.9967,5.9899,5.9901,5.9935,5.9928,5.9967,5.997,5.9968,6.0061,6.0077,6.0133,6.0034,6.0298,6.0305,6.0312,6.0381,6.0395,6.0408,0,0,0,0,0,5.9705,5.9795,5.9781,5.98,5.9893,5.997,5.9981,5.9979,5.9939,5.9982,5.9996,5.9969,6.0117,6.0071,6.0088,6.0147,6.0294,6.0303,6.0311,6.0374,6.0392,6.0408,0,0,0,0,0,0,5.9761,5.98,5.9785,5.9891,5.9928,5.9962,6.0016,5.9998,6.0045,6.0037,6.0029,6.0039,6.013,6.0147,6.0095,6.0255,6.0199,6.0212,6.0241,6.0258,6.0272,6.0266,6.0039,0,0,0,0,0,5.9786,5.9847,5.9877,5.9967,5.9987,5.9998,6.0032,6.0026,6.0063,6.0078,6.0098,6.0134,6.0188,6.0224,6.0275,6.0382,6.039,6.0431,6.0445,6.0456,6.0467,6.0524,6.0543,6.0344,6.0344,6.0344,0,0,5.9837,5.9866,5.9905,5.9979,6.0007,6.0069,6.0012,6.0079,6.0124,6.0088,6.0173,6.0189,6.0227,6.0326,6.037,6.0342,6.0523,6.0467,6.0476,6.0481,6.0535,6.0554,6.057,6.035,6.0349,6.0348,0,0,5.9963,5.9992,6.007,6.01,6.0143,6.015,6.0169,6.0206,6.0216,6.0302,6.0275,6.0327,6.0421,6.045,6.0477,6.0613,6.059,6.063,6.0702,6.0758,6.0773,6.0787,6.0835,6.0853,6.064,6.0641,6.0641,0,6.0022,6.0116,6.0112,6.0183,6.0215,6.0186,6.0265,6.0292,6.035,6.0372,6.0341,6.0458,6.0482,6.0586,6.062,6.0642,6.0662,6.0626,6.0772,6.0785,6.0798,6.0844,6.0862,6.0645,6.0645,6.0644,6.0644,0,6.0185,6.025,6.0308,6.0366,6.0405,6.0479,6.0485,6.0524,6.0515,6.0525,6.0612,6.0639,6.0696,6.072,6.0711,6.0823,6.0804,6.0773,6.0716,6.0822,6.0865,6.0882,6.0652,6.065,6.0649,6.0648,0,0,6.035,6.0405,6.0426,6.0452,6.0498,6.0547,6.0618,6.0675,6.0709,6.0749,6.0808,6.0888,6.0859,6.0889,6.0883,6.0932,6.1038,6.0894,6.0895,6.092,6.1162,6.1186,6.1206,6.1022,6.1026,6.1028,6.1158,0,6.0479,6.0606,6.0605,6.0722,6.0782,6.0755,6.0817,6.085,6.0861,6.0911,6.0922,6.0979,6.0937,6.0955,6.1002,6.1015,6.1086,6.1005,6.1076,6.1078,6.1068,6.1229,6.1254,6.1376,6.1175,6.1178,6.118,0,6.0647,6.0694,6.0818,6.0855,6.088,6.0936,6.0987,6.1036,6.1073,6.1077,6.1111,6.1097,6.1168,6.1109,6.1206,6.1151,6.1179,6.119,6.1194,6.1201,6.1136,6.124,6.1415,6.1433,6.1207,6.1204,6.1203,0,6.0754,6.0849,6.0935,6.0958,6.1003,6.1043,6.1063,6.1096,6.113,6.1174,6.1196,6.1247,6.1275,6.1314,6.1314,6.1271,6.1411,6.1353,6.1415,6.1416,6.1446,6.1445,6.1629,6.1464,6.1464,6.1464,6.1463,0,6.0899,6.0976,6.0984,6.1038,6.1122,6.1119,6.1202,6.1218,6.1248,6.1302,6.128,6.1331,6.1327,6.1378,6.1378,6.1457,6.147,6.1474,6.1473,6.1477,6.1476,6.1495,6.1487,6.1469,6.1468,6.1467,6.1466,0,6.1034,6.1043,6.1135,6.117,6.1181,6.1242,6.127,6.132,6.1328,6.1397,6.1413,6.1426,6.1485,6.1488,6.1555,6.1555,6.1652,6.1641,6.164,6.1638,6.1701,6.1695,6.1904,6.1931,6.1749,6.1751,6.1752,0,6.1126,6.1185,6.1226,6.1262,6.1285,6.1343,6.1378,6.1376,6.1412,6.1458,6.1502,6.1559,6.1605,6.17,6.1714,6.1765,6.1755,6.1825,6.1763,6.1764,6.1756,6.1753,6.1759,6.1837,6.1839,6.1841,6.1842,0,6.1288,6.129,6.1342,6.1396,6.1439,6.1481,6.1519,6.1549,6.1552,6.1594,6.1655,6.169,6.1759,6.1816,6.1866,6.1884,6.1863,6.1862,6.1879,6.1883,6.188,6.1883,6.1673,6.1857,6.1855,6.1854,6.1853,6.1853,6.1404,6.1455,6.1493,6.1551,6.1581,6.1618,6.1666,6.1681,6.1732,6.179,6.1785,6.1852,6.1885,6.195,6.1973,6.2024,6.2,6.2025,6.2031,6.2038,6.2044,6.1872,6.2033,6.2032,6.2032,6.2032,6.2031,0,6.1565,6.1588,6.1642,6.1699,6.1744,6.1722,6.1764,6.1803,6.1863,6.1897,6.1943,6.2012,6.2067,6.2085,6.2138,6.2175,6.2167,6.2189,6.2186,6.2191,6.2063,6.2043,6.2195,6.2195,6.2195,6.2195,6.2195,6.2195,6.1655,6.174,6.1746,6.1844,6.1866,6.1933,6.1959,6.1992,6.2019,6.2098,6.2144,6.2156,6.2184,6.2238,6.2286,6.229,6.231,6.2336,6.2336,6.2216,6.22,6.2184,6.2165,6.2341,6.2341,6.246,6.2461,6.2462]}]]